| time (UTC) | temp F | wind direction | speed knots | gust knots | rain 1hr in | rain 24hr in | rain mn in | humidity % | barometer mb |
| 20260510214335 | 43 | 5 | 0.0 | 0.0 | 0.00 | 0.00 | 0.00 | 86 | 1013.3 |
| 20260510213830 | 43 | 5 | 0.0 | 0.0 | 0.00 | 0.00 | 0.00 | 86 | 1013.2 |
| 20260510213333 | 43 | 5 | 0.0 | 0.0 | 0.00 | 0.00 | 0.00 | 85 | 1013.2 |
| 20260510212835 | 44 | 5 | 0.0 | 0.0 | 0.00 | 0.00 | 0.00 | 85 | 1013.2 |
| 20260510212330 | 44 | 5 | 0.0 | 0.0 | 0.00 | 0.00 | 0.00 | 85 | 1013.2 |
| 20260510212149 | 44 | 5 | 0.0 | 0.0 | 0.00 | 0.00 | 0.00 | 84 | 1013.2 |
| 20260510211329 | 45 | 5 | 0.0 | 0.0 | 0.00 | 0.00 | 0.00 | 84 | 1013.2 |
| 20260510210820 | 45 | 5 | 0.0 | 0.0 | 0.00 | 0.00 | 0.00 | 83 | 1013.2 |
| 20260510210635 | 46 | 5 | 0.0 | 0.0 | 0.00 | 0.00 | 0.00 | 83 | 1013.2 |
| 20260510210134 | 46 | 5 | 0.0 | 0.0 | 0.00 | 0.00 | 0.00 | 83 | 1013.2 |
| 20260510205318 | 47 | 5 | 0.0 | 0.0 | 0.00 | 0.00 | 0.00 | 83 | 1013.2 |
| 20260510204814 | 47 | 5 | 0.0 | 0.0 | 0.00 | 0.00 | 0.00 | 83 | 1013.1 |
| 20260510204456 | 47 | 5 | 0.0 | 0.0 | 0.00 | 0.00 | 0.00 | 82 | 1013.2 |
| 20260510204411 | 47 | 5 | 0.0 | 0.0 | 0.00 | 0.00 | 0.00 | 82 | 1013.2 |
| 20260510203624 | 48 | 5 | 0.0 | 0.0 | 0.00 | 0.00 | 0.00 | 82 | 1013.2 |
| 20260510203135 | 48 | 5 | 0.0 | 0.0 | 0.00 | 0.00 | 0.00 | 81 | 1013.1 |
| 20260510202308 | 49 | 5 | 0.0 | 0.0 | 0.00 | 0.00 | 0.00 | 81 | 1013.1 |
| 20260510202118 | 49 | 5 | 0.0 | 0.0 | 0.00 | 0.00 | 0.00 | 80 | 1012.9 |
| 20260510201305 | 49 | 10 | 0.0 | 0.0 | 0.00 | 0.00 | 0.00 | 79 | 1013.0 |
| 20260510200806 | 49 | 10 | 0.0 | 0.0 | 0.00 | 0.00 | 0.00 | 79 | 1012.9 |
| 20260510200307 | 50 | 10 | 0.0 | 0.0 | 0.00 | 0.00 | 0.00 | 79 | 1012.9 |
| 20260510195805 | 50 | 10 | 0.0 | 0.0 | 0.00 | 0.00 | 0.00 | 78 | 1012.9 |
| 20260510195306 | 50 | 10 | 0.0 | 0.0 | 0.00 | 0.00 | 0.00 | 78 | 1012.9 |
| 20260510194803 | 50 | 10 | 0.0 | 0.0 | 0.00 | 0.00 | 0.00 | 77 | 1012.9 |
| 20260510194257 | 51 | 311 | 0.0 | 0.0 | 0.00 | 0.00 | 0.00 | 77 | 1012.9 |
| 20260510193753 | 51 | 310 | 0.0 | 0.0 | 0.00 | 0.00 | 0.00 | 77 | 1012.8 |
| 20260510193254 | 51 | 303 | 0.0 | 0.0 | 0.00 | 0.00 | 0.00 | 76 | 1012.8 |
| 20260510193107 | 51 | 302 | 0.0 | 0.0 | 0.00 | 0.00 | 0.00 | 77 | 1012.7 |
| 20260510192251 | 51 | 295 | 0.0 | 0.0 | 0.00 | 0.00 | 0.00 | 76 | 1012.7 |
| 20260510191748 | 52 | 292 | 0.0 | 0.0 | 0.00 | 0.00 | 0.00 | 76 | 1012.8 |
| 20260510191249 | 52 | 52 | 0.0 | 0.0 | 0.00 | 0.00 | 0.00 | 76 | 1012.7 |
| 20260510190750 | 52 | 5 | 0.0 | 0.0 | 0.00 | 0.00 | 0.00 | 76 | 1012.7 |
| 20260510190246 | 52 | 352 | 0.0 | 0.0 | 0.00 | 0.00 | 0.00 | 75 | 1012.7 |
| 20260510185745 | 52 | 352 | 0.0 | 0.0 | 0.00 | 0.00 | 0.00 | 75 | 1012.7 |
| 20260510185244 | 53 | 346 | 0.0 | 0.0 | 0.00 | 0.00 | 0.00 | 76 | 1012.7 |
| 20260510184744 | 53 | 314 | 0.0 | 0.0 | 0.00 | 0.00 | 0.00 | 76 | 1012.7 |
| 20260510184243 | 53 | 27 | 0.0 | 0.0 | 0.00 | 0.00 | 0.00 | 76 | 1012.7 |
| 20260510183739 | 53 | 29 | 0.0 | 0.0 | 0.00 | 0.00 | 0.00 | 75 | 1012.8 |
| 20260510183238 | 53 | 352 | 0.0 | 0.0 | 0.00 | 0.00 | 0.00 | 75 | 1012.8 |
| 20260510182740 | 53 | 40 | 0.0 | 0.0 | 0.00 | 0.00 | 0.00 | 75 | 1012.9 |
| 20260510182241 | 54 | 33 | 0.0 | 0.0 | 0.00 | 0.00 | 0.00 | 75 | 1012.9 |
| 20260510182052 | 54 | 33 | 0.0 | 0.0 | 0.00 | 0.00 | 0.00 | 75 | 1012.8 |
| 20260510181557 | 54 | 23 | 0.0 | 0.0 | 0.00 | 0.00 | 0.00 | 75 | 1012.8 |
| 20260510180724 | 54 | 23 | 0.0 | 0.0 | 0.00 | 0.00 | 0.00 | 76 | 1012.9 |
| 20260510180211 | 54 | 5 | 0.0 | 0.0 | 0.00 | 0.00 | 0.00 | 76 | 1012.8 |
| 20260510175714 | 54 | 56 | 0.0 | 0.0 | 0.00 | 0.00 | 0.00 | 76 | 1012.9 |
| 20260510175338 | 55 | 294 | 0.0 | 0.0 | 0.00 | 0.00 | 0.00 | 76 | 1012.9 |
| 20260510175305 | 54 | 15 | 0.0 | 0.0 | 0.00 | 0.00 | 0.00 | 76 | 1013.0 |
| 20260510174210 | 55 | 346 | 0.0 | 0.0 | 0.00 | 0.00 | 0.00 | 76 | 1012.8 |
| 20260510173857 | 55 | 27 | 0.0 | 0.0 | 0.00 | 0.00 | 0.00 | 75 | 1013.0 |
| 20260510173812 | 55 | 5 | 0.0 | 0.0 | 0.00 | 0.00 | 0.00 | 76 | 1012.9 |
| 20260510172711 | 55 | 352 | 0.0 | 0.0 | 0.00 | 0.00 | 0.00 | 74 | 1013.0 |
| 20260510172526 | 56 | 23 | 0.0 | 0.0 | 0.00 | 0.00 | 0.00 | 74 | 1013.1 |
| 20260510171711 | 56 | 23 | 0.0 | 0.0 | 0.00 | 0.00 | 0.00 | 74 | 1013.1 |
| 20260510171212 | 57 | 35 | 0.0 | 0.0 | 0.00 | 0.00 | 0.00 | 74 | 1013.1 |
| 20260510170711 | 57 | 346 | 0.0 | 0.0 | 0.00 | 0.00 | 0.00 | 73 | 1013.0 |
| 20260510170206 | 58 | 20 | 0.0 | 0.0 | 0.00 | 0.00 | 0.00 | 74 | 1013.1 |
| 20260510165706 | 58 | 28 | 0.0 | 0.0 | 0.00 | 0.00 | 0.00 | 74 | 1013.1 |
| 20260510165206 | 58 | 31 | 0.0 | 0.0 | 0.00 | 0.01 | 0.00 | 73 | 1013.1 |
| 20260510164707 | 59 | 311 | 0.0 | 0.0 | 0.00 | 0.01 | 0.00 | 72 | 1013.1 |
| 20260510164204 | 59 | 26 | 0.0 | 0.0 | 0.00 | 0.01 | 0.00 | 72 | 1013.1 |
| 20260510163702 | 59 | 19 | 0.0 | 0.0 | 0.00 | 0.01 | 0.00 | 72 | 1013.0 |
| 20260510163202 | 59 | 15 | 0.0 | 0.0 | 0.00 | 0.01 | 0.00 | 72 | 1013.0 |
| 20260510162703 | 59 | 29 | 0.0 | 0.0 | 0.00 | 0.01 | 0.00 | 73 | 1012.9 |
| 20260510162202 | 59 | 29 | 0.0 | 0.0 | 0.00 | 0.01 | 0.00 | 72 | 1012.9 |
| 20260510161702 | 60 | 25 | 0.0 | 0.0 | 0.00 | 0.01 | 0.00 | 72 | 1013.0 |
| 20260510161201 | 60 | 25 | 0.0 | 0.0 | 0.00 | 0.01 | 0.00 | 71 | 1013.0 |
| 20260510160700 | 60 | 37 | 0.0 | 0.0 | 0.00 | 0.01 | 0.00 | 69 | 1012.9 |
| 20260510160201 | 61 | 5 | 0.0 | 0.0 | 0.00 | 0.01 | 0.00 | 70 | 1012.9 |
| 20260510155702 | 61 | 5 | 0.0 | 0.0 | 0.00 | 0.01 | 0.00 | 70 | 1012.8 |
| 20260510155202 | 61 | 350 | 0.0 | 0.0 | 0.00 | 0.01 | 0.00 | 69 | 1013.0 |
| 20260510154700 | 62 | 21 | 0.0 | 0.0 | 0.00 | 0.01 | 0.00 | 69 | 1013.0 |
| 20260510154203 | 62 | 29 | 0.0 | 0.0 | 0.00 | 0.01 | 0.00 | 71 | 1012.9 |
| 20260510153703 | 62 | 22 | 0.0 | 0.0 | 0.00 | 0.01 | 0.00 | 69 | 1013.0 |
| 20260510153156 | 62 | 15 | 0.0 | 0.0 | 0.00 | 0.01 | 0.00 | 71 | 1013.0 |
| 20260510152656 | 62 | 23 | 0.0 | 0.0 | 0.00 | 0.01 | 0.00 | 71 | 1013.0 |
| 20260510152156 | 62 | 15 | 0.0 | 0.0 | 0.00 | 0.01 | 0.00 | 68 | 1013.1 |
| 20260510152023 | 62 | 271 | 0.0 | 0.0 | 0.00 | 0.01 | 0.00 | 69 | 1013.0 |
| 20260510151159 | 62 | 319 | 0.0 | 0.0 | 0.00 | 0.01 | 0.00 | 69 | 1013.1 |
| 20260510150658 | 63 | 23 | 0.0 | 0.0 | 0.00 | 0.01 | 0.00 | 69 | 1013.1 |
| 20260510150156 | 63 | 19 | 0.0 | 0.0 | 0.00 | 0.01 | 0.00 | 69 | 1013.1 |
| 20260510145656 | 63 | 322 | 0.0 | 0.0 | 0.00 | 0.01 | 0.00 | 70 | 1013.2 |
| 20260510145157 | 63 | 25 | 0.0 | 0.0 | 0.00 | 0.01 | 0.00 | 68 | 1013.2 |
| 20260510144655 | 63 | 340 | 0.0 | 0.0 | 0.00 | 0.01 | 0.00 | 72 | 1013.1 |
| 20260510144155 | 62 | 339 | 0.0 | 0.0 | 0.00 | 0.01 | 0.00 | 68 | 1013.2 |
| 20260510144027 | 63 | 5 | 0.0 | 0.0 | 0.00 | 0.01 | 0.00 | 68 | 1013.4 |
| 20260510144021 | 63 | 10 | 0.0 | 0.0 | 0.00 | 0.01 | 0.00 | 68 | 1013.3 |
| 20260510143647 | 63 | 21 | 0.0 | 0.0 | 0.00 | 0.01 | 0.00 | 68 | 1013.3 |
| 20260510142402 | 63 | 19 | 0.0 | 0.0 | 0.00 | 0.01 | 0.00 | 68 | 1013.4 |
| 20260510142308 | 63 | 21 | 0.0 | 0.0 | 0.00 | 0.01 | 0.00 | 69 | 1013.4 |
| 20260510141153 | 64 | 323 | 0.0 | 0.0 | 0.00 | 0.01 | 0.00 | 66 | 1013.5 |
| 20260510140653 | 64 | 15 | 0.0 | 0.0 | 0.00 | 0.01 | 0.00 | 68 | 1013.4 |
| 20260510140153 | 64 | 42 | 0.0 | 0.0 | 0.00 | 0.01 | 0.00 | 67 | 1013.4 |
| 20260510135652 | 64 | 35 | 0.0 | 0.0 | 0.00 | 0.01 | 0.00 | 67 | 1013.4 |
| 20260510135152 | 64 | 15 | 0.0 | 0.0 | 0.00 | 0.01 | 0.00 | 68 | 1013.5 |
| 20260510134653 | 64 | 45 | 0.0 | 0.0 | 0.00 | 0.01 | 0.00 | 69 | 1013.5 |
| 20260510134154 | 64 | 15 | 0.0 | 0.0 | 0.00 | 0.01 | 0.00 | 67 | 1013.5 |
| 20260510133652 | 65 | 322 | 0.0 | 0.0 | 0.00 | 0.01 | 0.00 | 65 | 1013.5 |
| 20260510133151 | 65 | 28 | 0.0 | 0.0 | 0.00 | 0.01 | 0.00 | 64 | 1013.5 |
| 20260510132646 | 65 | 54 | 0.0 | 0.0 | 0.00 | 0.01 | 0.00 | 63 | 1013.5 |
| 20260510132147 | 66 | 32 | 0.0 | 0.0 | 0.00 | 0.01 | 0.00 | 62 | 1013.5 |
| 20260510132017 | 66 | 23 | 0.0 | 0.0 | 0.00 | 0.01 | 0.00 | 63 | 1013.5 |
| 20260510131144 | 66 | 355 | 0.0 | 0.0 | 0.00 | 0.01 | 0.00 | 64 | 1013.5 |
| 20260510130643 | 66 | 66 | 0.0 | 0.0 | 0.00 | 0.01 | 0.00 | 59 | 1013.5 |
| 20260510130143 | 66 | 36 | 0.0 | 0.0 | 0.00 | 0.01 | 0.00 | 59 | 1013.5 |
| 20260510125642 | 66 | 283 | 0.0 | 0.0 | 0.00 | 0.01 | 0.00 | 59 | 1013.6 |
| 20260510125138 | 66 | 15 | 0.0 | 0.0 | 0.00 | 0.01 | 0.00 | 59 | 1013.7 |
| 20260510124637 | 65 | 36 | 0.0 | 0.0 | 0.00 | 0.01 | 0.00 | 61 | 1013.6 |
| 20260510124135 | 65 | 15 | 0.0 | 0.0 | 0.00 | 0.01 | 0.00 | 59 | 1013.7 |
| 20260510123644 | 66 | 69 | 0.0 | 0.0 | 0.00 | 0.01 | 0.00 | 58 | 1013.7 |
| 20260510123133 | 66 | 327 | 0.0 | 0.0 | 0.00 | 0.01 | 0.00 | 59 | 1013.8 |
| 20260510122635 | 66 | 334 | 0.0 | 0.0 | 0.00 | 0.01 | 0.00 | 59 | 1013.9 |
| 20260510122130 | 66 | 37 | 0.0 | 0.0 | 0.00 | 0.01 | 0.00 | 57 | 1013.9 |
| 20260510121631 | 66 | 31 | 0.0 | 0.0 | 0.00 | 0.01 | 0.00 | 59 | 1014.0 |
| 20260510121449 | 66 | 23 | 0.0 | 0.0 | 0.00 | 0.01 | 0.00 | 57 | 1014.1 |
| 20260510120632 | 66 | 33 | 0.0 | 0.0 | 0.00 | 0.01 | 0.00 | 57 | 1014.1 |
| 20260510120136 | 66 | 23 | 0.0 | 0.0 | 0.00 | 0.01 | 0.00 | 59 | 1014.0 |
| 20260510115957 | 66 | 61 | 0.0 | 0.0 | 0.00 | 0.01 | 0.00 | 61 | 1014.0 |
| 20260510115134 | 65 | 56 | 0.0 | 0.0 | 0.00 | 0.01 | 0.00 | 60 | 1014.1 |
| 20260510114946 | 66 | 44 | 0.0 | 0.0 | 0.00 | 0.01 | 0.00 | 58 | 1014.1 |
| 20260510114131 | 66 | 15 | 0.0 | 0.0 | 0.00 | 0.01 | 0.00 | 57 | 1014.2 |
| 20260510113632 | 66 | 22 | 0.0 | 0.0 | 0.00 | 0.01 | 0.00 | 62 | 1014.2 |
| 20260510113457 | 66 | 44 | 0.0 | 0.0 | 0.00 | 0.01 | 0.00 | 61 | 1014.3 |
| 20260510112633 | 66 | 34 | 0.0 | 0.0 | 0.00 | 0.01 | 0.00 | 61 | 1014.2 |
| 20260510112132 | 66 | 85 | 0.0 | 0.0 | 0.00 | 0.01 | 0.00 | 56 | 1014.3 |
| 20260510112003 | 66 | 5 | 0.0 | 0.0 | 0.00 | 0.01 | 0.00 | 60 | 1014.4 |
| 20260510111142 | 66 | 328 | 0.0 | 0.0 | 0.00 | 0.01 | 0.00 | 60 | 1014.4 |
| 20260510110648 | 66 | 36 | 0.0 | 0.0 | 0.00 | 0.01 | 0.00 | 63 | 1014.4 |
| 20260510110134 | 66 | 23 | 0.0 | 0.0 | 0.00 | 0.01 | 0.00 | 61 | 1014.5 |
| 20260510105635 | 65 | 23 | 0.0 | 0.0 | 0.00 | 0.01 | 0.00 | 62 | 1014.5 |
| 20260510105131 | 65 | 5 | 0.0 | 0.0 | 0.00 | 0.01 | 0.00 | 62 | 1014.5 |
| 20260510104632 | 64 | 15 | 0.0 | 0.0 | 0.00 | 0.01 | 0.00 | 63 | 1014.5 |
| 20260510104132 | 64 | 349 | 0.0 | 0.0 | 0.00 | 0.01 | 0.00 | 63 | 1014.6 |
| 20260510103631 | 64 | 22 | 0.0 | 0.0 | 0.00 | 0.01 | 0.00 | 61 | 1014.5 |
| 20260510103130 | 63 | 15 | 0.0 | 0.0 | 0.00 | 0.01 | 0.00 | 63 | 1014.5 |
| 20260510102631 | 63 | 43 | 0.0 | 0.0 | 0.00 | 0.01 | 0.00 | 64 | 1014.6 |
| 20260510102132 | 62 | 15 | 0.0 | 0.0 | 0.00 | 0.01 | 0.00 | 66 | 1014.7 |
| 20260510101632 | 62 | 23 | 0.0 | 0.0 | 0.00 | 0.01 | 0.00 | 68 | 1014.8 |
| 20260510101130 | 61 | 5 | 0.0 | 0.0 | 0.00 | 0.01 | 0.00 | 70 | 1014.7 |
| 20260510100630 | 60 | 39 | 0.0 | 0.0 | 0.00 | 0.01 | 0.00 | 71 | 1014.6 |
| 20260510100130 | 59 | 302 | 0.0 | 0.0 | 0.00 | 0.01 | 0.00 | 72 | 1014.6 |
| 20260510095627 | 58 | 336 | 0.0 | 0.0 | 0.00 | 0.01 | 0.00 | 71 | 1014.7 |
| 20260510095124 | 58 | 45 | 0.0 | 0.0 | 0.00 | 0.01 | 0.00 | 71 | 1014.7 |
| 20260510094615 | 58 | 334 | 0.0 | 0.0 | 0.00 | 0.01 | 0.00 | 72 | 1014.8 |
| 20260510094112 | 57 | 356 | 0.0 | 0.0 | 0.00 | 0.01 | 0.00 | 72 | 1014.8 |
| 20260510093614 | 57 | 257 | 0.0 | 0.0 | 0.00 | 0.01 | 0.00 | 71 | 1014.8 |
| 20260510093110 | 58 | 51 | 0.0 | 0.0 | 0.00 | 0.01 | 0.00 | 72 | 1014.8 |
| 20260510092611 | 58 | 60 | 0.0 | 0.0 | 0.00 | 0.01 | 0.00 | 73 | 1014.7 |
| 20260510092110 | 58 | 61 | 0.0 | 0.0 | 0.00 | 0.01 | 0.00 | 73 | 1014.8 |
| 20260510091924 | 58 | 306 | 0.0 | 0.0 | 0.00 | 0.01 | 0.00 | 73 | 1014.8 |
| 20260510091107 | 57 | 15 | 0.0 | 0.0 | 0.00 | 0.01 | 0.00 | 75 | 1014.8 |
| 20260510090911 | 56 | 22 | 0.0 | 0.0 | 0.00 | 0.01 | 0.00 | 75 | 1014.7 |
| 20260510090106 | 56 | 356 | 0.0 | 0.0 | 0.00 | 0.01 | 0.00 | 76 | 1014.8 |
| 20260510085604 | 56 | 298 | 0.0 | 0.0 | 0.00 | 0.01 | 0.00 | 75 | 1014.9 |
| 20260510085105 | 56 | 320 | 0.0 | 0.0 | 0.00 | 0.01 | 0.00 | 76 | 1014.9 |
| 20260510084603 | 55 | 314 | 0.0 | 0.0 | 0.00 | 0.01 | 0.00 | 77 | 1015.0 |
| 20260510084422 | 55 | 20 | 0.0 | 0.0 | 0.00 | 0.01 | 0.00 | 77 | 1015.0 |
| 20260510083603 | 55 | 343 | 0.0 | 0.0 | 0.00 | 0.01 | 0.00 | 79 | 1014.9 |
| 20260510083100 | 54 | 34 | 0.0 | 0.0 | 0.00 | 0.01 | 0.00 | 79 | 1015.0 |
| 20260510082601 | 54 | 27 | 0.0 | 0.0 | 0.00 | 0.01 | 0.00 | 79 | 1015.0 |
| 20260510082100 | 54 | 28 | 0.0 | 0.0 | 0.00 | 0.01 | 0.00 | 79 | 1015.1 |
| 20260510081601 | 53 | 10 | 0.0 | 0.0 | 0.00 | 0.01 | 0.00 | 79 | 1015.1 |
| 20260510081100 | 53 | 21 | 0.0 | 0.0 | 0.00 | 0.01 | 0.00 | 79 | 1015.1 |
| 20260510080602 | 53 | 30 | 0.0 | 0.0 | 0.00 | 0.01 | 0.00 | 79 | 1015.0 |
| 20260510080414 | 53 | 5 | 0.0 | 0.0 | 0.00 | 0.01 | 0.00 | 78 | 1015.0 |
| 20260510075604 | 54 | 10 | 0.0 | 0.0 | 0.00 | 0.01 | 0.00 | 78 | 1015.0 |
| 20260510075105 | 54 | 340 | 0.0 | 0.0 | 0.00 | 0.01 | 0.00 | 76 | 1015.1 |
| 20260510074605 | 54 | 342 | 0.0 | 0.0 | 0.00 | 0.01 | 0.00 | 75 | 1015.1 |
| 20260510074232 | 57 | 1 | 0.0 | 0.0 | 0.00 | 0.01 | 0.00 | 73 | 1014.9 |
| 20260510074159 | 55 | 335 | 0.0 | 0.0 | 0.00 | 0.01 | 0.00 | 74 | 1015.0 |
| 20260510073809 | 56 | 342 | 0.0 | 0.0 | 0.00 | 0.01 | 0.00 | 72 | 1014.9 |
| 20260510073544 | 57 | 21 | 0.0 | 0.0 | 0.00 | 0.01 | 0.00 | 72 | 1015.0 |
| 20260510072101 | 57 | 340 | 0.0 | 0.0 | 0.00 | 0.01 | 0.00 | 75 | 1014.8 |
| 20260510071601 | 56 | 336 | 0.0 | 0.0 | 0.00 | 0.01 | 0.00 | 76 | 1014.9 |
| 20260510071102 | 56 | 15 | 0.0 | 0.0 | 0.00 | 0.01 | 0.00 | 76 | 1014.9 |
| 20260510070602 | 55 | 29 | 0.0 | 0.0 | 0.00 | 0.01 | 0.00 | 77 | 1014.9 |
| 20260510070100 | 54 | 5 | 0.0 | 0.0 | 0.00 | 0.01 | 0.00 | 78 | 1014.8 |
| 20260510065907 | 54 | 357 | 0.0 | 0.0 | 0.00 | 0.01 | 0.00 | 79 | 1014.6 |
| 20260510065101 | 53 | 320 | 0.0 | 0.0 | 0.00 | 0.01 | 0.00 | 79 | 1014.6 |
| 20260510064602 | 53 | 358 | 0.0 | 0.0 | 0.00 | 0.01 | 0.00 | 80 | 1014.5 |
| 20260510064425 | 52 | 20 | 0.0 | 0.0 | 0.00 | 0.01 | 0.00 | 82 | 1014.6 |
| 20260510063601 | 51 | 313 | 0.0 | 0.0 | 0.00 | 0.01 | 0.00 | 82 | 1014.5 |
| 20260510063100 | 50 | 347 | 0.0 | 0.0 | 0.00 | 0.01 | 0.00 | 84 | 1014.4 |
| 20260510062559 | 49 | 5 | 0.0 | 0.0 | 0.00 | 0.01 | 0.00 | 84 | 1014.3 |
| 20260510062054 | 49 | 10 | 0.0 | 0.0 | 0.00 | 0.01 | 0.00 | 84 | 1014.3 |
| 20260510061553 | 49 | 338 | 0.0 | 0.0 | 0.00 | 0.01 | 0.00 | 84 | 1014.3 |
| 20260510061051 | 48 | 342 | 0.0 | 0.0 | 0.00 | 0.01 | 0.00 | 85 | 1014.2 |
| 20260510060550 | 48 | 15 | 0.0 | 0.0 | 0.00 | 0.01 | 0.00 | 84 | 1014.2 |
| 20260510060050 | 48 | 333 | 0.0 | 0.0 | 0.00 | 0.01 | 0.00 | 84 | 1014.1 |
| 20260510055914 | 48 | 328 | 0.0 | 0.0 | 0.00 | 0.01 | 0.00 | 84 | 1014.0 |
| 20260510055053 | 48 | 296 | 0.0 | 0.0 | 0.00 | 0.01 | 0.00 | 84 | 1014.0 |
| 20260510054550 | 48 | 318 | 0.0 | 0.0 | 0.00 | 0.01 | 0.00 | 84 | 1014.0 |
| 20260510054049 | 48 | 19 | 0.0 | 0.0 | 0.00 | 0.01 | 0.00 | 84 | 1014.1 |
| 20260510053543 | 48 | 5 | 0.0 | 0.0 | 0.00 | 0.01 | 0.00 | 84 | 1014.1 |
| 20260510053042 | 48 | 10 | 0.0 | 0.0 | 0.00 | 0.01 | 0.00 | 83 | 1014.0 |
| 20260510052541 | 48 | 355 | 0.0 | 0.0 | 0.00 | 0.01 | 0.00 | 83 | 1014.2 |
| 20260510052038 | 48 | 353 | 0.0 | 0.0 | 0.00 | 0.01 | 0.00 | 83 | 1014.2 |
| 20260510051537 | 48 | 312 | 0.0 | 0.0 | 0.00 | 0.01 | 0.00 | 83 | 1014.3 |
| 20260510051037 | 48 | 348 | 0.0 | 0.0 | 0.00 | 0.01 | 0.00 | 83 | 1014.3 |
| 20260510050536 | 48 | 19 | 0.0 | 0.0 | 0.00 | 0.01 | 0.00 | 83 | 1014.2 |
| 20260510050033 | 48 | 19 | 0.0 | 0.0 | 0.00 | 0.01 | 0.00 | 82 | 1014.2 |
| 20260510045533 | 48 | 19 | 0.0 | 0.0 | 0.00 | 0.01 | 0.00 | 82 | 1014.1 |
| 20260510045526 | 49 | 355 | 0.0 | 0.0 | 0.00 | 0.01 | 0.00 | 81 | 1014.1 |
| 20260510045136 | 49 | 28 | 0.0 | 0.0 | 0.00 | 0.01 | 0.00 | 82 | 1014.2 |
| 20260510044848 | 49 | 29 | 0.0 | 0.0 | 0.00 | 0.01 | 0.00 | 82 | 1014.1 |
| 20260510044139 | 49 | 314 | 0.0 | 0.0 | 0.00 | 0.01 | 0.00 | 81 | 1014.1 |
| 20260510043030 | 49 | 354 | 0.0 | 0.0 | 0.00 | 0.01 | 0.00 | 81 | 1014.1 |
| 20260510042530 | 50 | 15 | 0.0 | 0.0 | 0.00 | 0.01 | 0.00 | 81 | 1014.1 |
| 20260510042032 | 50 | 334 | 0.0 | 0.0 | 0.00 | 0.01 | 0.00 | 81 | 1014.1 |
| 20260510041532 | 50 | 333 | 0.0 | 0.0 | 0.00 | 0.01 | 0.00 | 81 | 1014.1 |
| 20260510041032 | 51 | 333 | 0.0 | 0.0 | 0.00 | 0.01 | 0.00 | 81 | 1014.2 |
| 20260510040530 | 51 | 356 | 0.0 | 0.0 | 0.00 | 0.01 | 0.00 | 81 | 1014.2 |
| 20260510040350 | 51 | 0 | 0.0 | 0.0 | 0.00 | 0.01 | 0.00 | 81 | 1014.2 |
| 20260510035530 | 51 | 23 | 0.0 | 0.0 | 0.00 | 0.01 | 0.00 | 82 | 1014.3 |
| 20260510035030 | 51 | 23 | 0.0 | 0.0 | 0.00 | 0.01 | 0.00 | 82 | 1014.3 |
| 20260510034525 | 51 | 21 | 0.0 | 0.0 | 0.00 | 0.01 | 0.00 | 82 | 1014.4 |
| 20260510034340 | 52 | 19 | 0.0 | 0.0 | 0.00 | 0.01 | 0.00 | 82 | 1014.4 |
| 20260510033522 | 52 | 308 | 0.0 | 0.0 | 0.00 | 0.01 | 0.00 | 83 | 1014.4 |
| 20260510033022 | 52 | 308 | 0.0 | 0.0 | 0.00 | 0.01 | 0.00 | 83 | 1014.4 |
| 20260510032519 | 52 | 308 | 0.0 | 0.0 | 0.00 | 0.01 | 0.00 | 83 | 1014.4 |
| 20260510032018 | 52 | 303 | 0.0 | 0.0 | 0.00 | 0.01 | 0.00 | 83 | 1014.4 |
| 20260510031517 | 52 | 303 | 0.0 | 0.0 | 0.00 | 0.01 | 0.00 | 83 | 1014.3 |
| 20260510031336 | 52 | 311 | 0.0 | 0.0 | 0.00 | 0.01 | 0.00 | 83 | 1014.3 |
| 20260510030517 | 52 | 300 | 0.0 | 0.0 | 0.00 | 0.01 | 0.00 | 84 | 1014.3 |
| 20260510030014 | 52 | 49 | 0.0 | 0.0 | 0.00 | 0.01 | 0.00 | 84 | 1014.4 |
| 20260510025510 | 52 | 83 | 0.0 | 0.0 | 0.00 | 0.01 | 0.00 | 84 | 1014.4 |
| 20260510025011 | 52 | 83 | 0.0 | 0.0 | 0.00 | 0.01 | 0.00 | 84 | 1014.4 |
| 20260510024511 | 52 | 308 | 0.0 | 0.0 | 0.00 | 0.01 | 0.00 | 85 | 1014.4 |
| 20260510024009 | 52 | 308 | 0.0 | 0.0 | 0.00 | 0.01 | 0.00 | 86 | 1014.4 |
| 20260510023510 | 52 | 308 | 0.0 | 0.0 | 0.00 | 0.01 | 0.00 | 86 | 1014.4 |
| 20260510023004 | 51 | 308 | 0.0 | 0.0 | 0.00 | 0.01 | 0.00 | 87 | 1014.4 |
| 20260510022506 | 51 | 40 | 0.0 | 0.0 | 0.00 | 0.01 | 0.00 | 88 | 1014.4 |
| 20260510022006 | 51 | 40 | 0.0 | 0.0 | 0.00 | 0.01 | 0.00 | 88 | 1014.5 |
| 20260510021502 | 51 | 40 | 0.0 | 0.0 | 0.00 | 0.01 | 0.00 | 88 | 1014.5 |
| 20260510021002 | 51 | 40 | 0.0 | 0.0 | 0.00 | 0.01 | 0.00 | 88 | 1014.6 |
| 20260510020502 | 52 | 40 | 0.0 | 0.0 | 0.00 | 0.01 | 0.00 | 88 | 1014.6 |
| 20260510020315 | 52 | 40 | 0.0 | 0.0 | 0.00 | 0.01 | 0.00 | 89 | 1014.5 |
| 20260510015504 | 52 | 40 | 0.0 | 0.0 | 0.00 | 0.01 | 0.00 | 89 | 1014.5 |
| 20260510015003 | 52 | 40 | 0.0 | 0.0 | 0.00 | 0.01 | 0.00 | 88 | 1014.6 |
| 20260510014502 | 52 | 40 | 0.0 | 0.0 | 0.00 | 0.01 | 0.00 | 89 | 1014.6 |
| 20260510014002 | 52 | 40 | 0.0 | 0.0 | 0.00 | 0.01 | 0.00 | 89 | 1014.6 |
| 20260510013502 | 52 | 40 | 0.0 | 0.0 | 0.00 | 0.01 | 0.00 | 89 | 1014.5 |
| 20260510013002 | 52 | 40 | 0.0 | 0.0 | 0.00 | 0.01 | 0.00 | 89 | 1014.6 |
| 20260510012505 | 52 | 40 | 0.0 | 0.0 | 0.00 | 0.01 | 0.00 | 89 | 1014.7 |
| 20260510012002 | 52 | 40 | 0.0 | 0.0 | 0.00 | 0.01 | 0.00 | 89 | 1014.7 |
| 20260510011502 | 52 | 40 | 0.0 | 0.0 | 0.00 | 0.01 | 0.00 | 89 | 1014.8 |
| 20260510011002 | 52 | 40 | 0.0 | 0.0 | 0.00 | 0.01 | 0.00 | 90 | 1014.7 |
| 20260510010503 | 52 | 40 | 0.0 | 0.0 | 0.00 | 0.01 | 0.00 | 90 | 1014.8 |
| 20260510010000 | 52 | 40 | 0.0 | 0.0 | 0.00 | 0.01 | 0.00 | 90 | 1014.8 |
| 20260510005500 | 52 | 40 | 0.0 | 0.0 | 0.00 | 0.01 | 0.00 | 90 | 1014.8 |
| 20260510005000 | 52 | 40 | 0.0 | 0.0 | 0.00 | 0.01 | 0.00 | 90 | 1014.8 |
| 20260510004500 | 52 | 40 | 0.0 | 0.0 | 0.00 | 0.01 | 0.00 | 90 | 1014.8 |
| 20260510003957 | 52 | 40 | 0.0 | 0.0 | 0.00 | 0.01 | 0.00 | 90 | 1014.8 |
| 20260510003456 | 52 | 40 | 0.0 | 0.0 | 0.00 | 0.01 | 0.00 | 90 | 1014.8 |
| 20260510002956 | 52 | 40 | 0.0 | 0.0 | 0.00 | 0.01 | 0.00 | 90 | 1014.8 |
| 20260510002456 | 52 | 40 | 0.0 | 0.0 | 0.00 | 0.01 | 0.00 | 90 | 1014.8 |
| 20260510001956 | 52 | 40 | 0.0 | 0.0 | 0.00 | 0.01 | 0.00 | 91 | 1014.8 |
| 20260510001456 | 52 | 40 | 0.0 | 0.0 | 0.00 | 0.01 | 0.00 | 90 | 1015.0 |
| 20260510001324 | 52 | 40 | 0.0 | 0.0 | 0.00 | 0.01 | 0.00 | 91 | 1015.0 |
| 20260510000814 | 52 | 40 | 0.0 | 0.0 | 0.00 | 0.01 | 0.00 | 91 | 1015.0 |
| 20260509235952 | 52 | 40 | 0.0 | 0.0 | 0.00 | 0.01 | 0.00 | 91 | 1015.1 |
| 20260509235808 | 52 | 40 | 0.0 | 0.0 | 0.00 | 0.01 | 0.00 | 90 | 1015.1 |
| 20260509234949 | 52 | 40 | 0.0 | 0.0 | 0.00 | 0.01 | 0.00 | 90 | 1015.1 |
| 20260509234448 | 52 | 40 | 0.0 | 0.0 | 0.00 | 0.01 | 0.00 | 90 | 1015.1 |
| 20260509233946 | 52 | 40 | 0.0 | 0.0 | 0.00 | 0.01 | 0.00 | 90 | 1015.2 |
| 20260509233804 | 52 | 40 | 0.0 | 0.0 | 0.00 | 0.01 | 0.00 | 90 | 1015.2 |
| 20260509233258 | 52 | 40 | 0.0 | 0.0 | 0.00 | 0.01 | 0.00 | 90 | 1015.2 |
| 20260509232449 | 52 | 40 | 0.0 | 0.0 | 0.00 | 0.01 | 0.00 | 90 | 1015.1 |
| 20260509231948 | 52 | 40 | 0.0 | 0.0 | 0.00 | 0.01 | 0.00 | 90 | 1015.1 |
| 20260509231757 | 52 | 40 | 0.0 | 0.0 | 0.00 | 0.01 | 0.00 | 90 | 1015.1 |
| 20260509230947 | 53 | 40 | 0.0 | 0.0 | 0.00 | 0.01 | 0.00 | 90 | 1015.2 |
| 20260509230447 | 53 | 40 | 0.0 | 0.0 | 0.00 | 0.01 | 0.00 | 90 | 1015.3 |
| 20260509225944 | 53 | 40 | 0.0 | 0.0 | 0.00 | 0.01 | 0.01 | 90 | 1015.3 |
| 20260509225445 | 53 | 40 | 0.0 | 0.0 | 0.00 | 0.01 | 0.01 | 89 | 1015.3 |
| 20260509224946 | 53 | 40 | 0.0 | 0.0 | 0.00 | 0.01 | 0.01 | 89 | 1015.2 |
| 20260509224443 | 53 | 40 | 0.0 | 0.0 | 0.00 | 0.01 | 0.01 | 89 | 1015.2 |
| 20260509223942 | 53 | 40 | 0.0 | 0.0 | 0.00 | 0.01 | 0.01 | 89 | 1015.2 |
| 20260509223752 | 53 | 40 | 0.0 | 0.0 | 0.00 | 0.01 | 0.01 | 89 | 1015.2 |
| 20260509222944 | 53 | 40 | 0.0 | 0.0 | 0.00 | 0.01 | 0.01 | 89 | 1015.3 |
| 20260509222443 | 53 | 40 | 0.0 | 0.0 | 0.00 | 0.01 | 0.01 | 89 | 1015.2 |
| 20260509221944 | 53 | 40 | 0.0 | 0.0 | 0.00 | 0.01 | 0.01 | 88 | 1015.3 |
| 20260509221445 | 53 | 40 | 0.0 | 0.0 | 0.00 | 0.01 | 0.01 | 88 | 1015.3 |
| 20260509221130 | 53 | 40 | 0.0 | 0.0 | 0.00 | 0.01 | 0.01 | 88 | 1015.4 |
| 20260509221047 | 53 | 40 | 0.0 | 0.0 | 0.00 | 0.01 | 0.01 | 88 | 1015.3 |
| 20260509215942 | 53 | 40 | 0.0 | 0.0 | 0.00 | 0.01 | 0.01 | 88 | 1015.4 |
| 20260509215445 | 53 | 40 | 0.0 | 0.0 | 0.00 | 0.01 | 0.01 | 88 | 1015.3 |
| 20260509214938 | 53 | 42 | 0.0 | 0.0 | 0.00 | 0.01 | 0.01 | 87 | 1015.3 |
| 20260509214440 | 54 | 42 | 0.0 | 0.0 | 0.00 | 0.01 | 0.01 | 87 | 1015.3 |